sat.trackr.live / text

‹ back to catalog

STARLINK-34904

NORAD 65274 · 2025-184B

PAYLOAD ACTIVE UNKNOWN

§ Identity

Operator
Country
US
Launch date
2025-08-22
Launch site
AFWTR
Launch vehicle
Mass (kg)
RCS (m²)

Purposes: comms

External: N2YO · Heavens-Above · Gunter

§ Orbital elements

Epoch: 2026-09-20T13:59:39.238656Z

Period
93.90 min
Inclination
97.2815°
Eccentricity
0.0000393
Mean motion
15.33472727 rev/d
Perigee alt
465.2 km
Apogee alt
465.7 km
Semi-major
6,843.6 km
B*
7.1428e-4
RAAN
311.4960°
Arg perigee
208.1064°
Mean anomaly
152.0158°
Rev number
6,073

§ Raw data

STARLINK-349041 65274U 25184B   26263.58309304  .00023075  00000+0  71428-3 0  99962 65274  97.2815 311.4960 0000393 208.1064 152.0158 15.33472727 60737

JSON: /api/v1/satellites/65274 · /tle

For live sub-satellite position, see the globe view (requires WebGL).

§ Visibility from observer

Set your observer location to see the next 7 days of passes ≥ 10°. The values pass through the URL so the page stays shareable.

No JS? Fill the form by hand. The geolocation button needs JavaScript.